Weather History for Valentine, NE

Change the Weather History Date:

Friday, May 18, 2012

  Actual Average Record
Temperature  
Mean Temperature 73 °F 58 °F  
Max Temperature 91 °F 72 °F 98 °F (1934)
Min Temperature 55 °F 45 °F 29 °F (1915)
Degree Days  
Heating Degree Days 0 8  
Month to date heating degree days 119 185  
Since 1 July heating degree days 5768 6868  
Cooling Degree Days 8 1  
Month to date cooling degree days 23 15  
Year to date cooling degree days 44 19  
Growing Degree Days 23 (Base 50)    
Moisture  
Dew Point 47 °F    
Average Humidity 43    
Maximum Humidity 66    
Minimum Humidity 19    
Precipitation  
Precipitation 0.00 in 0.10 in 1.96 in (1897)
Month to date precipitation 0.03 1.73  
Year to date precipitation 5.79 5.76  
Snow  
Snow 0.00 in 0.00 in 0.10 in (1930)
Month to date snowfall 0.0 0.1  
Since 1 July snowfall 15.9 33.3  
Snow Depth 0.00 in    
Sea Level Pressure  
Sea Level Pressure 29.56 in    
Wind  
Wind Speed 12 mph (SSW)    
Max Wind Speed 22 mph    
Max Gust Speed 26 mph    
Visibility 10 miles    
Events Rain , Thunderstorm    
T = Trace of Precipitation, MM = Missing Value Source: NWS Daily Summary

Daily Weather History Graph

Daily Weather History Graph

Search for Another Location

Airport:

Trip Planner

Search our weather history database for the weather conditions in past years. The results will help you decide how hot, cold, wet, or windy it might be!

Date:

Astronomy

May. 18, 2012 Rise Set
Actual Time 6:15 AM CDT 9:02 PM CDT
Civil Twilight 5:42 AM CDT 9:35 PM CDT
Nautical Twilight 5:01 AM CDT 10:16 PM CDT
Astronomical Twilight 4:13 AM CDT 11:04 PM CDT
Moon 4:48 AM CDT (5/18) 7:10 PM CDT (5/18)
Length of Visible Light 15h 52m
Length of Day
14h 46m
Waning Crescent, 5% of the Moon is Illuminated
May 18
Waning Crescent
May 20
New
May 28
First Quarter
Jun 4
Full
Jun 11
Last Quarter

Hourly Weather History & Observations

Time (CDT) Temp. Dew Point Humidity Pressure Visibility Wind Dir Wind Speed Gust Speed Precip Events Conditions
12:52 AM 73.0 °F 45.0 °F 37% 29.57 in 10.0 mi SSW 15.0 mph - N/A   Clear
1:52 AM 73.9 °F 41.0 °F 30% 29.56 in 10.0 mi SSW 15.0 mph - N/A   Clear
2:52 AM 71.1 °F 42.1 °F 35% 29.57 in 10.0 mi SSW 13.8 mph 21.9 mph N/A   Clear
3:52 AM 68.0 °F 42.1 °F 39% 29.57 in 10.0 mi SSW 12.7 mph - N/A   Clear
4:52 AM 63.0 °F 43.0 °F 48% 29.57 in 10.0 mi SW 11.5 mph - N/A   Clear
5:52 AM 57.9 °F 43.0 °F 58% 29.59 in 10.0 mi Calm Calm - N/A   Clear
6:52 AM 55.9 °F 44.1 °F 64% 29.60 in 10.0 mi WNW 5.8 mph - N/A   Clear
7:52 AM 61.0 °F 46.0 °F 58% 29.61 in 10.0 mi Calm Calm - N/A   Clear
8:52 AM 66.0 °F 48.0 °F 52% 29.59 in 10.0 mi South 9.2 mph - N/A   Clear
9:52 AM 73.9 °F 46.0 °F 37% 29.57 in 10.0 mi South 16.1 mph 21.9 mph N/A   Clear
10:52 AM 77.0 °F 46.9 °F 34% 29.57 in 10.0 mi SW 13.8 mph - N/A   Clear
11:52 AM 82.0 °F 48.0 °F 30% 29.55 in 10.0 mi SSE 11.5 mph - N/A   Clear
12:52 PM 84.9 °F 46.9 °F 27% 29.54 in 10.0 mi South 12.7 mph - N/A   Clear
1:52 PM 89.1 °F 46.0 °F 22% 29.51 in 10.0 mi SSE 16.1 mph 23.0 mph N/A   Clear
2:52 PM 89.1 °F 43.0 °F 20% 29.50 in 10.0 mi South 13.8 mph 23.0 mph N/A   Clear
3:52 PM 90.0 °F 44.1 °F 20% 29.49 in 10.0 mi South 17.3 mph 21.9 mph N/A   Clear
4:52 PM 91.4 °F 46.4 °F 21% 29.55 in 10.0 mi SE 17.3 mph 26.5 mph N/A   Clear
5:52 PM 90.0 °F 45.0 °F 21% 29.47 in 10.0 mi SSE 19.6 mph 23.0 mph N/A   Clear
6:52 PM 87.1 °F 45.0 °F 23% 29.47 in 10.0 mi SSE 19.6 mph 25.3 mph N/A   Clear
7:52 PM 84.0 °F 46.9 °F 27% 29.47 in 10.0 mi SSE 12.7 mph - N/A   Clear
8:52 PM 81.0 °F 50.0 °F 34% 29.50 in 10.0 mi South 11.5 mph - N/A   Clear
9:43 PM 73.4 °F 48.2 °F 41% 29.61 in 10.0 mi NW 20.7 mph 26.5 mph N/A   Scattered Clouds
9:52 PM 70.0 °F 52.0 °F 53% 29.56 in 10.0 mi NW 18.4 mph 26.5 mph N/A   Scattered Clouds
10:31 PM 66.2 °F 55.4 °F 68% 29.65 in 10.0 mi NW 13.8 mph 21.9 mph N/A Thunderstorm Mostly Cloudy
10:52 PM 66.0 °F 55.9 °F 70% 29.55 in 10.0 mi NNW 20.7 mph 28.8 mph N/A   Mostly Cloudy
11:29 PM 62.6 °F 57.2 °F 82% 29.64 in 9.0 mi NNW 16.1 mph 21.9 mph 0.01 in Rain , Thunderstorm Light Rain
11:52 PM 63.0 °F 57.9 °F 84% 29.61 in 8.0 mi North 6.9 mph 16.1 mph 0.05 in Rain , Thunderstorm Light Rain